PBO Station Position Time Series. Reference Frame : NAM14
Format Version,1.1.0
4-character ID,P333
Station name,BaldMtnMNFCN2007
Begin Date, 2007-08-17
End Date, 2019-10-07
Release Date, 2019-10-08
Reference position, 39.6213812090 North Latitude, -122.9757547843 East Longitude, 2008.83937 meters elevation,
Date, North (mm), East (mm), Vertical (mm), North Std. Deviation (mm), East Std. Deviation (mm),              Vertical Std. Deviation (mm), Quality,
2007-08-17,0.00, 0.00, 0.00, 2.39, 1.97, 9.24, repro,
2007-08-18,-0.65, 0.35, 5.53, 2.39, 1.95, 9.41, repro,
2007-08-19,0.60, 1.79, 10.08, 2.45, 2.01, 9.66, repro,
2007-08-20,1.43, -1.32, 0.23, 2.33, 1.87, 8.90, repro,
2007-08-21,1.15, -0.06, -0.27, 2.38, 1.87, 9.07, repro,
2007-08-22,1.34, -1.30, 6.15, 2.43, 1.93, 9.58, repro,
2007-08-23,2.67, -0.21, 9.26, 2.27, 1.78, 8.47, repro,
2007-08-24,0.73, -0.90, 11.03, 2.45, 1.89, 9.10, repro,
2007-08-25,2.16, -1.60, -0.67, 2.33, 1.91, 9.10, repro,
2007-08-26,1.23, -0.72, 9.30, 2.40, 1.97, 9.26, repro,
2007-08-27,1.06, 0.26, 4.95, 2.46, 1.98, 9.65, repro,
2007-08-28,0.18, -1.50, 7.45, 2.29, 1.87, 8.82, repro,
2007-08-29,1.31, -0.29, -2.85, 2.42, 2.01, 9.39, repro,
2007-08-30,0.62, 0.78, 1.00, 2.41, 1.93, 9.48, repro,
2007-08-31,1.76, 0.51, -2.58, 2.29, 1.90, 8.72, repro,
2007-09-01,0.35, 0.06, 10.53, 2.31, 1.92, 9.05, repro,
2007-09-02,1.41, -1.14, -0.78, 2.46, 2.06, 9.76, repro,
2007-09-03,1.49, -0.66, -2.24, 2.37, 1.96, 9.37, repro,
2007-09-04,0.11, -1.97, 9.03, 2.36, 1.94, 9.24, repro,
2007-09-05,1.37, -1.36, 10.32, 2.47, 1.98, 9.40, repro,
2007-09-06,1.14, -1.45, 4.68, 2.38, 1.97, 9.54, repro,
2007-09-07,0.93, -0.94, 9.99, 2.44, 1.96, 9.70, repro,
2007-09-08,0.08, -0.86, 9.59, 2.63, 2.18, 10.72, repro,
2007-09-09,1.39, -2.21, 9.39, 2.64, 2.25, 10.88, repro,
2007-09-10,1.45, -0.80, 1.45, 2.31, 1.94, 9.03, repro,
2007-09-11,1.12, -1.89, 6.51, 2.42, 1.91, 9.18, repro,
2007-09-12,-0.54, -2.10, 0.21, 2.42, 1.96, 9.36, repro,
2007-09-13,-0.50, -1.46, 1.23, 2.58, 2.02, 9.77, repro,
2007-09-14,1.01, 0.42, -1.65, 2.47, 2.04, 9.58, repro,
2007-09-15,2.02, -2.54, 2.24, 2.52, 2.09, 10.04, repro,
2007-09-16,0.05, -1.05, 7.68, 2.47, 1.97, 9.33, repro,
2007-09-17,0.67, -1.75, 3.04, 2.51, 2.06, 10.09, repro,
2007-09-18,-0.26, -1.05, 9.44, 2.38, 1.94, 9.51, repro,
2007-09-19,-0.09, -0.64, 11.23, 2.35, 1.84, 8.73, repro,
2007-09-20,-3.68, -4.06, -5.41, 2.32, 1.90, 9.10, repro,
2007-09-21,-0.11, -0.10, 6.50, 2.51, 1.91, 9.47, repro,
2007-09-22,-0.12, 1.23, 13.35, 2.33, 1.86, 8.82, repro,
2007-09-23,0.34, 1.95, 2.07, 2.48, 1.96, 9.64, repro,
2007-09-24,-0.72, 0.55, 6.45, 2.53, 1.94, 9.67, repro,
2007-09-25,-1.52, 0.69, 4.93, 2.45, 1.93, 9.56, repro,
2007-09-26,-0.63, 0.71, 3.93, 2.32, 1.84, 8.82, repro,
2007-09-27,-1.58, 0.72, -1.96, 2.26, 1.79, 8.57, repro,
2007-09-28,-0.71, 1.37, 7.10, 2.24, 1.77, 8.22, repro,
2007-09-29,0.15, -0.28, 5.85, 2.39, 1.90, 8.96, repro,
2007-09-30,-1.61, 0.48, 1.30, 2.29, 1.84, 8.58, repro,
2007-10-01,1.01, 1.17, 4.41, 2.35, 1.93, 8.57, repro,
2007-10-02,0.45, 0.50, 4.81, 2.29, 1.92, 8.67, repro,
2007-10-03,1.47, 0.63, 4.46, 2.32, 1.88, 8.84, repro,
2007-10-04,-0.90, -0.16, 11.34, 2.62, 2.28, 10.43, repro,
2007-10-05,-1.14, 0.58, 10.45, 2.30, 1.83, 8.77, repro,
2007-10-06,-0.61, 1.14, 1.13, 2.44, 1.95, 9.39, repro,
2007-10-07,-1.08, 1.47, 3.59, 2.68, 2.25, 10.76, repro,
2007-10-08,-0.61, 1.07, -0.06, 2.61, 1.97, 9.89, repro,
2007-10-09,1.80, 0.36, 14.84, 2.38, 1.92, 8.97, repro,
2007-10-10,-0.61, 1.44, 1.83, 2.36, 1.85, 8.80, repro,
2007-10-11,0.61, -0.35, -1.69, 2.25, 1.84, 8.58, repro,
2007-10-12,-2.65, 0.01, 13.30, 2.48, 2.07, 9.68, repro,
2007-10-13,-0.96, 1.61, 7.17, 2.27, 1.82, 8.66, repro,
2007-10-14,-1.38, -0.46, 8.09, 2.74, 2.27, 10.61, repro,
2007-10-15,-0.12, 0.10, 8.55, 2.20, 1.81, 8.27, repro,
2007-10-16,-1.02, 1.09, 2.63, 2.75, 2.45, 11.21, repro,
2007-10-17,-0.67, 2.27, -0.64, 2.36, 2.00, 9.70, repro,
2007-10-18,0.05, 2.36, 4.90, 2.67, 2.39, 11.05, repro,
2007-10-19,1.57, 1.75, -0.03, 2.21, 1.80, 8.40, repro,
2007-10-20,0.41, -0.04, 7.62, 2.33, 1.97, 9.58, repro,
2007-10-21,0.79, 2.23, 2.60, 2.44, 2.07, 9.58, repro,
2007-10-22,-1.42, 0.61, -2.08, 2.42, 1.95, 9.47, repro,
2007-10-23,-1.85, 1.87, -2.63, 2.46, 2.05, 9.89, repro,
2007-10-24,0.13, 2.00, 2.39, 2.53, 2.13, 10.29, repro,
2007-10-25,0.14, 1.67, 0.61, 2.38, 1.98, 9.57, repro,
2007-10-26,0.18, 0.92, -1.85, 2.34, 1.95, 9.23, repro,
2007-10-27,1.29, -0.01, -3.28, 2.43, 1.96, 9.33, repro,
2007-10-28,1.12, 2.43, -5.68, 2.35, 2.00, 9.43, repro,
2007-10-29,-1.02, 2.07, 10.67, 2.46, 2.04, 9.95, repro,
2007-10-30,-0.06, 0.79, -0.38, 2.47, 2.01, 9.80, repro,
2007-10-31,-0.55, 1.04, 4.71, 2.40, 1.94, 9.42, repro,
2007-11-01,-0.86, 0.08, -4.92, 2.40, 1.89, 9.24, repro,
2007-11-02,1.12, 0.76, 3.00, 2.32, 1.87, 8.73, repro,
2007-11-03,0.06, 0.42, 3.32, 2.28, 1.93, 8.92, repro,
2007-11-04,0.11, 0.19, -3.78, 2.34, 1.94, 9.26, repro,
2007-11-05,-0.19, 0.39, -0.94, 2.31, 1.95, 9.21, repro,
2007-11-06,1.90, -0.03, -4.49, 2.23, 1.85, 8.44, repro,
2007-11-07,1.05, -0.57, -1.01, 2.22, 1.82, 8.37, repro,
2007-11-08,0.60, 1.14, -0.80, 2.32, 1.93, 9.07, repro,
2007-11-09,1.89, 0.36, -1.85, 2.32, 1.92, 9.00, repro,
2007-11-10,-0.48, 1.08, -8.91, 2.22, 1.81, 8.52, repro,
2007-11-11,0.93, 0.92, -8.95, 2.21, 1.82, 8.55, repro,
2007-11-12,-0.09, 0.32, -1.71, 2.65, 2.09, 10.49, repro,
2007-11-13,0.18, 1.75, 0.64, 2.24, 1.86, 8.69, repro,
2007-11-14,-0.04, -0.21, -9.58, 2.26, 1.90, 8.85, repro,
2007-11-15,1.66, -0.28, -6.26, 2.32, 1.94, 9.05, repro,
2007-11-16,0.49, 0.29, -9.02, 2.34, 1.94, 9.30, repro,
2007-11-17,0.27, -0.46, -5.53, 2.28, 1.92, 8.97, repro,
2007-11-18,0.92, 0.81, 0.95, 2.44, 2.08, 9.88, repro,
2007-11-19,2.92, -0.00, -2.59, 2.26, 1.87, 8.71, repro,
2007-11-20,1.32, 0.43, -3.95, 2.34, 1.93, 9.23, repro,
2007-11-21,1.41, -0.36, -9.27, 3.02, 2.31, 11.01, repro,
2007-11-22,0.53, -0.09, -8.65, 2.28, 1.90, 8.80, repro,
2007-11-23,1.20, -1.43, 4.85, 2.26, 1.94, 8.97, repro,
2007-11-24,0.64, -0.17, 1.06, 2.35, 1.94, 9.24, repro,
2007-11-25,1.22, -0.99, -4.85, 2.39, 1.96, 9.10, repro,
2007-11-26,-0.62, -0.22, -6.34, 2.37, 2.01, 9.16, repro,
2007-11-27,1.64, 0.75, -11.95, 2.37, 1.96, 9.16, repro,
2007-11-28,0.17, -0.99, -7.42, 2.23, 1.82, 8.50, repro,
2007-11-29,1.82, -2.83, -11.76, 2.32, 1.90, 8.55, repro,
2007-11-30,1.31, -0.51, -7.69, 2.37, 1.89, 8.92, repro,
2007-12-01,1.62, -1.10, -2.09, 2.30, 1.93, 9.18, repro,
2007-12-02,2.28, 0.36, 11.35, 2.45, 2.03, 9.78, repro,
2007-12-03,9.15, 10.75, -1.97, 2.35, 1.91, 9.14, repro,
2007-12-04,4.44, 0.82, -8.65, 2.37, 2.06, 9.21, repro,
2007-12-05,0.64, 0.71, -4.64, 2.29, 2.00, 8.93, repro,
2007-12-06,2.52, 0.93, -4.89, 2.36, 1.97, 9.25, repro,
2007-12-07,0.09, 0.57, -6.54, 2.48, 2.17, 9.66, repro,
2007-12-08,0.21, -0.48, -1.71, 2.31, 1.92, 8.94, repro,
2007-12-09,1.79, -0.41, -6.80, 2.59, 2.33, 10.44, repro,
2007-12-10,-0.19, -1.36, -4.33, 2.59, 2.22, 10.06, repro,
2007-12-11,-0.41, 0.31, -8.45, 2.43, 1.96, 9.23, repro,
2007-12-12,1.09, -1.28, -12.70, 2.41, 2.01, 9.60, repro,
2007-12-13,2.11, -2.46, -8.48, 2.39, 1.97, 9.30, repro,
2007-12-14,1.45, -1.01, -8.04, 2.22, 1.76, 8.29, repro,
2007-12-15,0.27, 0.81, -0.57, 2.84, 2.51, 11.42, repro,
2007-12-16,2.62, -1.44, -2.86, 2.51, 1.94, 9.58, repro,
2007-12-17,1.98, 1.45, 5.12, 2.44, 2.04, 9.77, repro,
2007-12-18,2.97, 2.70, 14.60, 2.65, 2.29, 10.97, repro,
2007-12-19,-0.90, 4.39, 10.42, 2.59, 2.10, 9.93, repro,
2007-12-20,3.52, 8.24, 18.55, 2.49, 1.97, 9.70, repro,
2007-12-21,4.58, 8.84, -0.74, 2.44, 2.01, 9.43, repro,
2007-12-22,-1.81, -0.11, -10.82, 2.79, 2.41, 11.82, repro,
2007-12-23,-1.27, 1.95, -6.24, 2.34, 1.92, 9.15, repro,
2007-12-24,-0.45, 0.18, -3.65, 2.35, 1.92, 9.24, repro,
2007-12-25,1.30, 0.32, 2.20, 2.38, 2.04, 9.40, repro,
2007-12-26,-3.11, -0.47, 11.52, 2.52, 2.08, 9.79, repro,
2007-12-27,-3.55, 1.67, 1.95, 2.45, 1.95, 9.18, repro,
2007-12-28,-4.36, 0.24, 9.11, 2.56, 1.96, 9.66, repro,
2007-12-29,-5.52, 3.44, 7.57, 3.01, 2.56, 11.77, repro,
2007-12-30,-1.37, -0.29, 4.36, 2.43, 2.02, 9.77, repro,
2007-12-31,0.19, -0.32, -4.01, 2.23, 1.76, 8.28, repro,
2008-01-01,1.09, 0.43, -11.57, 2.22, 1.78, 8.25, repro,
2008-01-02,5.08, -0.85, -13.87, 3.11, 2.31, 11.74, repro,
2008-01-03,3.51, 0.41, 4.75, 2.21, 1.74, 8.19, repro,
2008-01-04,2.13, 5.48, 13.06, 2.25, 1.79, 8.32, repro,
2008-01-05,3.11, 1.73, 9.91, 2.20, 1.72, 8.25, repro,
2008-01-06,2.19, 0.97, 1.69, 2.29, 1.78, 8.60, repro,
2008-01-07,2.29, 1.30, 4.07, 2.24, 1.76, 8.48, repro,
2008-01-08,4.32, 1.61, -0.17, 2.41, 1.83, 9.04, repro,
2008-01-09,-1.40, 7.37, 5.54, 2.92, 2.38, 11.39, repro,
2008-01-10,0.40, 6.49, -3.78, 2.28, 1.85, 8.75, repro,
2008-01-11,1.47, -0.78, -2.68, 2.43, 2.03, 9.54, repro,
2008-01-12,-0.00, 0.97, -4.55, 2.24, 1.83, 8.60, repro,
2008-01-13,1.83, 0.90, -10.35, 2.28, 1.81, 8.56, repro,
2008-01-14,2.81, 0.40, -8.41, 2.48, 2.00, 9.32, repro,
2008-01-15,0.19, -1.10, -5.86, 2.31, 1.90, 8.88, repro,
2008-01-16,1.96, 0.02, -13.15, 2.40, 1.97, 9.06, repro,
2008-01-17,1.18, 1.99, -3.96, 2.38, 1.89, 9.21, repro,
2008-01-18,1.30, 1.42, -10.77, 2.25, 1.84, 8.70, repro,
2008-01-19,2.28, 0.23, -11.06, 2.27, 1.83, 8.57, repro,
2008-01-20,1.27, 0.52, -9.10, 2.33, 1.96, 9.23, repro,
2008-01-21,0.97, -0.73, -10.73, 2.24, 1.82, 8.51, repro,
2008-01-22,-1.13, 0.14, 0.09, 2.50, 2.13, 10.09, repro,
2008-01-23,2.40, 0.21, -12.64, 2.25, 1.88, 8.61, repro,
2008-01-24,0.56, -1.00, 1.91, 2.43, 1.87, 9.38, repro,
2008-01-25,3.63, -0.62, -5.26, 2.24, 1.79, 8.72, repro,
2008-01-26,3.13, 1.91, 1.51, 2.57, 2.13, 10.45, repro,
2008-01-27,9.07, 0.92, 7.34, 2.72, 2.19, 11.41, repro,
2008-01-28,8.12, 6.48, 26.60, 2.46, 1.91, 9.34, repro,
2008-01-29,8.99, 6.74, 14.27, 2.81, 2.21, 11.14, repro,
2008-01-30,8.44, 6.49, 30.14, 2.62, 2.13, 10.84, repro,
2008-01-31,9.83, 7.32, 26.05, 2.46, 1.95, 9.44, repro,
2008-02-01,7.38, 6.78, 27.08, 2.26, 1.86, 8.58, repro,
2008-02-02,6.21, 8.74, 26.69, 2.23, 1.79, 8.29, repro,
2008-02-03,3.26, 7.60, 31.47, 2.49, 2.08, 10.23, repro,
2008-02-04,2.76, 8.52, 29.58, 2.27, 1.83, 8.41, repro,
2008-02-05,2.96, 8.88, 22.22, 2.46, 2.05, 9.41, repro,
2008-02-06,-5.37, 3.87, -8.99, 2.36, 1.93, 9.20, repro,
2008-02-07,0.69, 1.93, -17.09, 2.36, 2.00, 9.48, repro,
2008-02-08,-0.55, 4.38, -13.25, 2.61, 2.03, 9.95, repro,
2008-02-09,0.71, 3.14, -12.23, 2.40, 1.90, 9.18, repro,
2008-02-10,1.12, 1.61, -7.11, 2.44, 2.06, 9.70, repro,
2008-02-11,2.02, 3.15, -7.70, 2.38, 1.99, 9.31, repro,
2008-02-12,0.26, 2.33, -11.17, 2.48, 2.12, 9.55, repro,
2008-02-13,0.20, 1.61, -15.97, 2.41, 2.00, 9.48, repro,
2008-02-14,1.31, 0.56, -5.28, 2.65, 2.17, 10.89, repro,
2008-02-15,2.13, 0.24, -10.72, 2.46, 2.11, 10.08, repro,
2008-02-16,0.32, 1.56, -20.45, 2.46, 1.93, 9.39, repro,
2008-02-17,0.96, 1.37, -8.62, 2.37, 1.93, 9.10, repro,
2008-02-18,1.77, 2.18, -8.95, 2.43, 2.01, 9.51, repro,
2008-02-19,0.39, 1.16, -2.66, 2.27, 1.92, 9.00, repro,
2008-02-20,1.56, 1.36, -7.29, 2.45, 2.02, 9.69, repro,
2008-02-21,1.54, 2.03, -4.99, 2.47, 2.07, 9.96, repro,
2008-02-22,1.58, 1.86, -8.79, 2.84, 2.59, 11.31, repro,
2008-02-23,0.62, 0.46, -0.81, 2.19, 1.83, 8.49, repro,
2008-02-24,1.70, 1.65, 14.31, 2.62, 2.28, 11.28, repro,
2008-02-25,-3.60, 8.81, 1.15, 2.73, 2.35, 11.44, repro,
2008-02-26,3.23, 0.92, -18.94, 2.48, 2.14, 9.98, repro,
2008-02-27,1.62, 2.12, -19.47, 2.44, 1.99, 9.56, repro,
2008-02-28,0.94, 0.47, -13.46, 2.38, 2.04, 9.34, repro,
2008-02-29,1.88, -0.78, -2.70, 2.42, 2.04, 9.52, repro,
2008-03-01,-0.93, 2.85, -5.75, 2.86, 2.56, 11.42, repro,
2008-03-02,-1.83, 0.76, -11.53, 2.74, 2.34, 11.34, repro,
2008-03-03,2.75, 1.77, -20.92, 2.35, 1.95, 9.32, repro,
2008-03-04,1.60, 0.34, -13.47, 2.31, 1.96, 9.14, repro,
2008-03-05,2.28, 0.95, -10.90, 2.49, 2.12, 10.16, repro,
2008-03-06,2.31, 1.27, -15.09, 2.70, 2.19, 10.46, repro,
2008-03-07,-0.28, 0.26, -6.99, 2.34, 1.91, 9.19, repro,
2008-03-08,0.72, 1.48, -19.05, 3.13, 2.73, 13.23, repro,
2008-03-09,0.61, 0.68, -10.16, 2.36, 1.92, 9.30, repro,
2008-03-10,1.52, -0.43, -13.61, 2.44, 2.06, 9.99, repro,
2008-03-11,0.46, 1.39, -17.92, 2.38, 2.01, 9.32, repro,
2008-03-12,-0.45, 0.55, -6.69, 2.38, 1.96, 9.36, repro,
2008-03-13,1.78, 3.47, -11.44, 2.38, 2.02, 9.61, repro,
2008-03-14,2.20, -0.37, -9.84, 2.39, 2.06, 9.80, repro,
2008-03-15,0.21, 0.42, -17.23, 2.36, 2.03, 9.23, repro,
2008-03-16,1.12, 0.05, -9.60, 2.43, 1.99, 9.59, repro,
2008-03-17,-1.73, -1.62, -0.01, 2.53, 2.20, 10.23, repro,
2008-03-18,1.97, -0.80, -7.33, 2.36, 2.03, 9.39, repro,
2008-03-19,0.20, 1.25, -12.22, 2.38, 2.01, 9.48, repro,
2008-03-20,1.69, 0.29, -17.15, 2.70, 2.32, 10.74, repro,
2008-03-21,2.16, -0.23, -16.53, 2.43, 2.11, 9.88, repro,
2008-03-22,1.89, -0.54, -8.19, 2.36, 2.01, 9.16, repro,
2008-03-23,1.61, 0.53, -15.02, 2.42, 1.99, 9.58, repro,
2008-03-24,0.21, 0.55, -8.11, 2.51, 2.20, 10.32, repro,
2008-03-25,-0.13, 1.27, -3.76, 2.50, 2.13, 10.33, repro,
2008-03-26,0.42, -0.15, -8.32, 2.48, 2.09, 10.06, repro,
2008-03-27,0.55, 0.57, -13.72, 2.58, 2.12, 10.43, repro,
2008-03-28,2.17, 0.43, -11.08, 2.60, 2.29, 10.90, repro,
2008-03-29,0.41, 3.47, -10.18, 2.47, 2.01, 10.00, repro,
2008-03-30,-0.16, -0.55, -0.79, 2.44, 2.00, 10.02, repro,
2008-03-31,1.26, -0.53, -7.15, 2.28, 1.86, 8.83, repro,
2008-04-01,1.44, 0.04, -4.00, 2.41, 2.07, 9.71, repro,
2008-04-02,1.41, 1.49, -7.00, 2.81, 2.32, 11.86, repro,
2008-04-03,1.47, -0.55, -8.46, 2.45, 2.17, 10.41, repro,
2008-04-04,0.87, 0.44, -11.41, 2.49, 2.10, 9.91, repro,
2008-04-05,2.07, 0.66, -5.60, 2.35, 1.87, 9.06, repro,
2008-04-06,0.56, 0.67, -4.07, 2.42, 2.01, 9.53, repro,
2008-04-07,2.78, 0.28, -15.16, 2.57, 1.98, 9.71, repro,
2008-04-08,0.52, -1.11, -2.94, 2.51, 2.06, 10.20, repro,
2008-04-09,0.14, -1.58, -0.50, 2.32, 1.86, 9.09, repro,
2008-04-10,1.11, -1.08, -3.99, 2.39, 1.97, 9.56, repro,
2008-04-11,1.31, 0.08, -9.14, 2.32, 1.91, 9.17, repro,
2008-04-12,-0.34, -0.24, 2.34, 2.52, 2.06, 10.23, repro,
2008-04-13,0.84, -0.01, -11.04, 2.44, 1.94, 9.47, repro,
2008-04-14,1.60, -0.71, -1.38, 2.20, 1.75, 8.40, repro,
2008-04-15,2.09, -1.01, -3.69, 2.41, 1.95, 9.30, repro,
2008-04-16,-0.10, -0.60, -2.53, 2.53, 2.17, 9.93, repro,
2008-04-17,1.00, -0.71, -2.65, 2.24, 1.78, 8.59, repro,
2008-04-18,-0.54, 0.11, -4.23, 2.32, 1.83, 8.87, repro,
2008-04-19,0.27, -0.78, -7.93, 2.29, 1.82, 9.05, repro,
2008-04-20,-0.31, 0.31, -5.86, 2.41, 1.95, 9.39, repro,
2008-04-21,-0.77, -0.70, -7.51, 2.35, 1.81, 9.09, repro,
2008-04-22,0.60, 1.35, -11.05, 2.39, 1.88, 9.34, repro,
2008-04-23,1.56, 0.59, -3.96, 2.45, 1.95, 9.82, repro,
2008-04-24,0.15, 0.61, -12.47, 2.42, 1.94, 9.50, repro,
2008-04-25,-0.06, 1.01, -13.82, 2.42, 1.88, 9.52, repro,
2008-04-26,-0.57, -0.24, -13.16, 2.51, 2.01, 9.99, repro,
2008-04-27,-0.07, 0.45, -12.69, 2.67, 1.97, 10.34, repro,
2008-04-28,1.09, -0.75, -6.95, 3.40, 2.61, 13.72, repro,
2008-04-29,0.35, 0.39, -4.00, 2.58, 1.97, 9.84, repro,
2008-04-30,1.07, -0.67, -13.47, 2.55, 2.13, 10.10, repro,
2008-05-01,-1.04, 1.23, -7.31, 3.14, 2.79, 13.48, repro,
2008-05-02,1.98, -0.21, -9.81, 2.88, 2.21, 11.30, repro,
2008-05-03,-2.32, -2.13, 5.01, 2.74, 2.25, 11.09, repro,
2008-05-04,1.70, 1.20, -11.23, 2.40, 1.98, 9.47, repro,
2008-05-05,-1.62, -1.34, -1.93, 2.49, 1.97, 9.75, repro,
2008-05-06,-0.01, -0.55, 0.19, 2.62, 2.05, 10.09, repro,
2008-05-07,-2.39, -2.33, 4.09, 2.54, 2.12, 10.60, repro,
2008-05-08,-0.11, -0.31, -8.95, 2.50, 2.02, 10.04, repro,
2008-05-09,-0.04, -1.84, -4.18, 2.48, 1.99, 9.65, repro,
2008-05-10,1.48, -1.51, -2.34, 2.51, 2.01, 9.68, repro,
2008-05-11,1.90, 0.03, -10.64, 2.59, 2.07, 10.35, repro,
2008-05-12,-1.67, -0.19, -5.88, 2.62, 2.01, 10.21, repro,
2008-05-13,-1.00, -2.22, 0.73, 2.61, 2.01, 10.32, repro,
2008-05-14,1.04, -2.24, -1.02, 2.61, 2.01, 10.23, repro,
2008-05-15,4.12, 0.35, -18.40, 2.71, 2.25, 11.29, repro,
2008-05-16,-2.00, -0.14, -2.16, 2.40, 1.92, 9.35, repro,
2008-05-17,-0.24, 1.37, -10.09, 2.47, 1.94, 9.77, repro,
2008-05-18,-0.86, -0.44, -0.16, 2.62, 2.21, 10.56, repro,
2008-05-19,-1.75, 0.04, -6.15, 2.42, 1.99, 9.79, repro,
2008-05-20,-1.33, -0.93, 3.18, 2.51, 2.03, 10.19, repro,
2008-05-21,0.86, 0.04, -8.57, 2.39, 1.93, 9.44, repro,
2008-05-22,0.64, -2.23, 4.19, 2.56, 2.15, 10.83, repro,
2008-05-23,-0.08, 0.28, -1.53, 2.30, 1.82, 8.81, repro,
2008-05-24,0.12, -0.86, -4.08, 2.33, 1.83, 9.07, repro,
2008-05-25,0.21, -1.41, -6.26, 2.39, 1.94, 9.55, repro,
2008-05-26,-0.94, 0.18, -4.29, 2.35, 1.83, 9.03, repro,
2008-05-27,0.32, -0.90, -13.30, 2.34, 1.85, 9.01, repro,
2008-05-28,-1.28, -0.14, -3.73, 2.57, 1.94, 9.70, repro,
2008-05-29,-0.80, -0.60, -4.18, 2.42, 1.92, 9.44, repro,
2008-05-30,-0.73, -1.61, 5.18, 2.44, 1.94, 9.52, repro,
2008-05-31,0.85, -0.84, -1.51, 2.55, 2.01, 10.16, repro,
2008-06-01,1.58, -0.86, -5.12, 2.59, 2.11, 10.61, repro,
2008-06-02,0.59, 0.45, -4.96, 2.49, 1.99, 9.77, repro,
2008-06-03,0.86, 1.23, -7.50, 2.73, 2.18, 10.78, repro,
2008-06-04,1.98, 0.51, -2.64, 2.56, 2.09, 10.52, repro,
2008-06-05,0.88, -0.36, -7.06, 2.54, 2.12, 10.30, repro,
2008-06-06,1.50, 0.38, -5.55, 2.51, 1.99, 9.95, repro,
2008-06-07,0.79, -0.93, 2.51, 2.56, 2.14, 10.36, repro,
2008-06-08,0.11, 0.63, -4.02, 2.66, 2.11, 10.16, repro,
2008-06-09,1.35, -0.08, -10.04, 2.74, 2.16, 10.60, repro,
2008-06-10,1.41, 1.33, -8.02, 2.53, 2.05, 10.33, repro,
2008-06-11,0.84, 0.35, -5.76, 2.51, 2.04, 10.07, repro,
2008-06-12,1.57, 2.57, -8.31, 3.03, 2.36, 11.96, repro,
2008-06-13,1.13, 0.88, -7.64, 2.55, 2.13, 10.76, repro,
2008-06-14,1.29, 0.34, -7.25, 2.81, 2.27, 11.72, repro,
2008-06-15,0.95, 0.29, -0.68, 2.69, 2.18, 11.16, repro,
2008-06-16,1.70, 1.71, -11.55, 2.54, 2.07, 10.50, repro,
2008-06-17,0.68, 1.29, -9.96, 2.40, 1.93, 9.63, repro,
2008-06-18,1.97, 1.68, -5.92, 2.58, 1.97, 9.96, repro,
2008-06-19,2.70, 0.21, -9.58, 3.01, 2.57, 12.28, repro,
2008-06-20,2.15, 0.86, -6.42, 2.71, 2.22, 11.03, repro,
2008-06-21,6.13, 4.97, -13.19, 2.51, 2.04, 9.82, repro,
2008-06-22,2.70, -0.58, -11.79, 2.54, 2.06, 10.15, repro,
2008-06-23,1.15, 0.73, -2.00, 2.58, 2.19, 11.13, repro,
2008-06-24,2.15, 1.27, -6.29, 2.87, 2.20, 11.96, repro,
2008-06-25,1.97, -0.04, -6.19, 2.74, 2.27, 11.45, repro,
2008-06-26,2.78, 0.84, -2.68, 2.35, 1.86, 9.12, repro,
2008-06-27,2.59, -0.53, 4.21, 2.29, 1.80, 8.77, repro,
2008-06-28,1.32, -0.28, -4.19, 2.41, 1.92, 9.49, repro,
2008-06-29,0.77, -1.23, -9.33, 2.74, 2.21, 11.34, repro,
2008-06-30,3.60, -1.62, -7.50, 2.65, 2.08, 10.72, repro,
2008-07-01,1.45, -1.35, 1.08, 2.77, 2.21, 11.72, repro,
2008-07-02,2.77, -1.33, -4.29, 2.68, 2.14, 11.02, repro,
2008-07-03,1.62, 0.43, -4.06, 2.70, 2.14, 11.12, repro,
2008-07-04,3.59, 0.36, -2.22, 2.73, 2.23, 11.26, repro,
2008-07-05,3.46, 0.09, -1.81, 2.69, 2.23, 11.17, repro,
2008-07-06,1.19, -0.20, 8.10, 2.75, 2.18, 11.27, repro,
2008-07-07,2.14, -0.83, 3.86, 2.31, 1.89, 9.03, repro,
2008-07-08,2.17, -2.33, 5.03, 2.40, 1.90, 9.42, repro,
2008-07-09,2.88, -0.50, 4.77, 2.39, 1.96, 9.45, repro,
2008-07-10,1.67, -0.28, 7.10, 2.54, 2.07, 10.13, repro,
2008-07-11,1.98, -2.32, 4.14, 2.48, 1.96, 9.83, repro,
2008-07-12,1.19, -1.46, 1.61, 2.52, 1.97, 10.02, repro,
2008-07-13,0.26, -1.76, 3.38, 2.51, 2.14, 10.34, repro,
2008-07-14,1.94, -0.39, -8.07, 2.42, 1.90, 9.40, repro,
2008-07-15,2.36, 0.74, -6.08, 2.49, 2.01, 10.00, repro,
2008-07-16,2.95, 0.08, -1.52, 2.54, 2.00, 10.07, repro,
2008-07-17,2.25, -0.68, -3.02, 2.68, 2.10, 11.24, repro,
2008-07-18,2.79, -0.56, 2.29, 2.75, 2.04, 10.94, repro,
2008-07-19,2.20, 1.85, -0.51, 2.56, 2.01, 10.16, repro,
2008-07-20,2.74, 0.51, 5.60, 2.50, 1.91, 9.77, repro,
2008-07-21,1.75, -1.51, 1.64, 2.61, 2.04, 10.56, repro,
2008-07-22,1.27, -1.93, 19.10, 2.67, 2.14, 10.82, repro,
2008-07-23,1.84, 0.42, 7.98, 2.66, 2.03, 10.61, repro,
2008-07-24,2.30, -1.30, 4.51, 2.71, 2.20, 11.42, repro,
2008-07-25,3.74, -1.12, 4.02, 2.67, 2.13, 10.68, repro,
2008-07-26,1.23, -0.98, 4.22, 2.61, 2.14, 10.81, repro,
2008-07-27,1.03, 0.62, 8.67, 2.59, 2.07, 10.40, repro,
2008-07-28,2.65, 1.85, 9.20, 2.74, 2.16, 10.97, repro,
2008-07-29,2.64, 1.05, 11.10, 2.67, 2.05, 10.52, repro,
2008-07-30,0.89, 0.22, 10.99, 2.64, 2.00, 10.57, repro,
2008-07-31,1.25, 0.44, 6.76, 2.40, 1.91, 9.49, repro,
2008-08-01,1.13, -0.19, 10.09, 2.50, 1.93, 9.77, repro,
2008-08-02,1.62, -1.36, 19.44, 2.58, 2.03, 10.05, repro,
2008-08-03,1.00, -1.79, 7.77, 2.71, 2.23, 11.08, repro,
2008-08-04,4.20, -0.03, 2.16, 2.71, 2.14, 10.59, repro,
2008-08-05,1.79, -1.47, 7.07, 2.53, 2.04, 10.05, repro,
2008-08-06,2.34, -2.28, 8.89, 3.27, 2.93, 14.42, repro,
2008-08-07,4.18, -1.05, 16.55, 2.78, 2.21, 11.47, repro,
2008-08-08,1.07, 1.76, 9.95, 2.99, 2.39, 12.64, repro,
2008-08-09,0.37, 0.53, -4.17, 2.87, 2.26, 12.07, repro,
2008-08-10,2.89, -1.56, 9.59, 3.00, 2.42, 12.27, repro,
2008-08-11,1.46, -0.12, 3.22, 3.26, 2.42, 13.03, repro,
2008-08-12,1.33, -0.71, 6.20, 2.70, 2.11, 11.20, repro,
2008-08-13,-0.87, -0.53, 5.99, 2.77, 2.20, 12.04, repro,
2008-08-14,-2.36, -3.09, 21.36, 2.52, 1.97, 10.13, repro,
2008-08-15,0.84, -1.19, 11.10, 2.64, 2.12, 10.77, repro,
2008-08-16,1.59, -1.17, 4.91, 2.79, 2.27, 11.28, repro,
2008-08-17,1.11, 0.63, 17.51, 2.91, 2.30, 12.23, repro,
2008-08-18,1.72, -0.18, 9.81, 3.06, 2.46, 12.98, repro,
2008-08-19,3.81, -2.79, 7.79, 3.15, 2.47, 13.07, repro,
2008-08-20,1.51, -0.20, 9.10, 3.22, 2.71, 13.97, repro,
2008-08-21,2.42, -0.82, 9.45, 3.63, 2.79, 15.56, repro,
2008-08-22,2.11, -0.49, 9.87, 3.74, 2.79, 16.61, repro,
2008-08-23,0.79, -2.48, 3.58, 3.34, 2.61, 14.18, repro,
2008-08-24,2.06, -1.56, 2.79, 3.22, 2.55, 14.48, repro,
2008-08-25,0.59, 0.42, -5.88, 4.04, 3.57, 16.86, repro,
2008-08-26,0.53, -0.10, 18.83, 4.55, 3.51, 21.41, repro,
2008-08-27,1.40, -1.23, 11.77, 3.10, 2.50, 13.46, repro,
2008-08-28,3.32, -2.16, 1.21, 4.10, 3.00, 19.16, repro,
2008-09-02,2.55, 0.95, -7.79, 4.49, 3.32, 17.13, repro,
2008-09-03,2.26, 0.58, -0.10, 2.76, 2.22, 11.06, repro,
2008-09-04,0.28, -0.70, 3.73, 2.73, 2.14, 11.05, repro,
2008-09-05,1.93, -1.85, 0.29, 2.81, 2.24, 11.59, repro,
2008-09-06,1.41, -0.81, 7.17, 2.53, 2.02, 9.99, repro,
2008-09-07,1.37, -0.79, 7.83, 2.58, 2.08, 10.39, repro,
2008-09-08,0.40, -2.77, -1.12, 3.07, 2.62, 13.24, repro,
2008-09-09,1.76, 1.29, -4.39, 2.80, 2.27, 11.50, repro,
2008-09-10,3.02, -0.94, -0.42, 3.25, 2.56, 13.70, repro,
2008-09-11,0.70, -2.18, 3.67, 2.97, 2.37, 12.26, repro,
2008-09-12,1.95, -1.50, 15.08, 2.77, 2.19, 11.31, repro,
2008-09-13,2.22, -0.66, 4.50, 3.07, 2.46, 12.34, repro,
2008-09-14,1.12, -0.93, 7.77, 2.81, 2.17, 11.41, repro,
2008-09-15,-0.08, -1.23, 5.37, 2.88, 2.47, 12.64, repro,
2008-09-16,2.00, -0.52, 2.63, 2.83, 2.27, 11.72, repro,
2008-09-17,2.67, -1.44, -0.89, 3.54, 2.81, 14.75, repro,
2008-09-18,1.44, -0.11, -3.00, 3.13, 2.47, 13.38, repro,
2008-09-19,2.24, 0.63, 11.76, 3.29, 2.51, 13.50, repro,
2008-09-20,3.65, -1.00, -1.83, 2.96, 2.32, 12.37, repro,
2008-09-21,0.07, -1.01, 6.92, 2.95, 2.33, 12.39, repro,
2008-09-22,0.74, 0.03, -1.42, 3.64, 2.76, 15.01, repro,
2008-09-23,2.76, 0.38, 5.10, 3.28, 2.45, 13.54, repro,
2008-09-24,2.02, 1.44, 1.64, 5.29, 5.32, 27.90, repro,
2008-09-25,1.55, 0.48, -13.22, 4.37, 3.54, 20.69, repro,
2008-09-26,1.78, 1.43, -4.16, 3.39, 2.74, 14.90, repro,
2008-09-27,1.54, -1.82, -0.09, 3.96, 2.97, 18.21, repro,
2008-09-28,1.97, 2.27, -8.07, 3.68, 3.02, 16.39, repro,
2008-09-29,-0.22, 1.53, 1.21, 3.34, 2.57, 14.70, repro,
2008-09-30,3.50, 1.18, -5.33, 4.71, 3.38, 21.44, repro,
2008-10-01,2.16, 2.81, -5.00, 6.31, 5.31, 30.11, repro,
2008-10-02,2.36, -0.95, -5.53, 3.46, 2.79, 14.61, repro,
2008-10-03,2.30, 0.23, -3.64, 3.22, 2.73, 13.58, repro,
2008-10-04,-1.14, 0.18, 7.77, 3.22, 2.64, 13.83, repro,
2008-10-05,2.91, -1.29, 0.39, 3.03, 2.45, 12.81, repro,
2008-10-06,-3.37, -1.33, -9.92, 8.13, 5.93, 29.42, repro,
2008-10-07,1.28, 1.40, 11.85, 3.86, 3.07, 17.10, repro,
2008-10-08,1.12, -0.71, -12.23, 3.77, 3.02, 15.50, repro,
2008-10-09,0.50, -0.93, 3.62, 2.08, 1.57, 7.35, repro,
2008-10-10,-0.16, -1.61, -3.44, 2.07, 1.54, 7.23, repro,
2008-10-11,0.54, -0.46, 1.31, 2.06, 1.54, 7.22, repro,
2008-10-12,0.34, 0.33, -1.73, 2.05, 1.54, 7.17, repro,
2008-10-13,1.27, 1.40, -0.58, 2.06, 1.53, 7.18, repro,